TimeMST,TemperatureF,Dew PointF,Humidity,Sea Level PressureIn,VisibilityMPH,Wind Direction,Wind SpeedMPH,Gust SpeedMPH,PrecipitationIn,Events,Conditions,WindDirDegrees,DateUTC
12:53 AM,19.9,14.0,78,30.41,10.0,ESE,6.9,-,N/A,,Clear,120,2014-01-14 07:53:00
1:53 AM,18.0,12.9,81,30.42,10.0,SE,3.5,-,N/A,,Clear,140,2014-01-14 08:53:00
2:53 AM,17.1,12.0,81,30.43,10.0,SSE,5.8,-,N/A,,Clear,160,2014-01-14 09:53:00
3:53 AM,16.0,10.9,81,30.44,10.0,ESE,5.8,-,N/A,,Clear,120,2014-01-14 10:53:00
4:53 AM,16.0,10.9,81,30.46,10.0,South,5.8,-,N/A,,Clear,170,2014-01-14 11:53:00
5:53 AM,19.0,12.9,77,30.48,10.0,South,4.6,-,N/A,,Clear,170,2014-01-14 12:53:00
6:53 AM,14.0,10.0,84,30.53,10.0,SE,4.6,-,N/A,,Clear,140,2014-01-14 13:53:00
7:53 AM,15.1,10.9,84,30.56,9.0,SSE,8.1,-,N/A,,Clear,150,2014-01-14 14:53:00
8:53 AM,24.1,15.1,69,30.56,10.0,SE,8.1,-,N/A,,Clear,140,2014-01-14 15:53:00
9:53 AM,28.0,18.0,66,30.57,10.0,WNW,5.8,-,N/A,,Clear,300,2014-01-14 16:53:00
10:53 AM,30.9,19.0,61,30.56,10.0,Calm,Calm,-,N/A,,Clear,0,2014-01-14 17:53:00
11:53 AM,34.0,19.9,56,30.57,10.0,Calm,Calm,-,N/A,,Clear,0,2014-01-14 18:53:00
12:53 PM,39.9,21.0,47,30.51,10.0,Calm,Calm,-,N/A,,Clear,0,2014-01-14 19:53:00
1:53 PM,42.1,19.0,40,30.51,10.0,Calm,Calm,-,N/A,,Clear,0,2014-01-14 20:53:00
2:53 PM,41.0,18.0,40,30.51,10.0,Calm,Calm,-,N/A,,Clear,0,2014-01-14 21:53:00
3:53 PM,42.1,19.0,40,30.52,10.0,Calm,Calm,-,N/A,,Clear,0,2014-01-14 22:53:00
4:53 PM,39.0,19.0,45,30.54,10.0,East,4.6,-,N/A,,Clear,80,2014-01-14 23:53:00
5:53 PM,30.9,19.0,61,30.56,10.0,SE,4.6,-,N/A,,Clear,130,2014-01-15 00:53:00
6:53 PM,28.0,19.0,69,30.59,10.0,SSE,4.6,-,N/A,,Clear,150,2014-01-15 01:53:00
7:53 PM,25.0,17.1,72,30.61,10.0,SSE,5.8,-,N/A,,Clear,150,2014-01-15 02:53:00
8:53 PM,25.0,17.1,72,30.59,10.0,Calm,Calm,-,N/A,,Clear,0,2014-01-15 03:53:00
9:53 PM,21.9,16.0,78,30.60,9.0,SE,8.1,-,N/A,,Clear,130,2014-01-15 04:53:00
10:53 PM,19.9,14.0,78,30.59,10.0,South,8.1,-,N/A,,Clear,170,2014-01-15 05:53:00
11:53 PM,21.0,14.0,74,30.56,10.0,ESE,6.9,-,N/A,,Clear,120,2014-01-15 06:53:00